770  
ASUS43 KGLD 262159  
RWRGLD  
 
GOODLAND FORECAST AREA HOURLY WEATHER ROUNDUP  
NATIONAL WEATHER SERVICE GOODLAND KS  
300 PM MST SAT NOV 26 2022  
   
..OFFICIAL OBSERVATIONS
 
 
 
CITY SKY/WX TMP DP RH WIND PRES REMARKS
 
GOODLAND KS N/A N/A N/A N/A MISG 29.72S  
HILL CITY KS PTSUNNY 59 30 33 S3 29.71F  
IMPERIAL NEB SUNNY 59 22 24 NE21G30 29.76R  
MCCOOK NEB MOSUNNY 60 19 20 N9 29.72F  
AKRON CO SUNNY 53 21 28 N26G36 29.82R  
BURLINGTON CO SUNNY 60 17 18 N18G24 29.74F  
LIMON CO SUNNY 55 17 22 N24G37 29.81R  

 
   
..UNOFFICIAL OBSERVATIONS
 
 
 
CITY SKY/WX TMP DP RH WIND PRES REMARKS
 
COLBY KS MOSUNNY 62 24 24 SE9 29.71F  
SHARON SPRINGS N/A 63 8 11 E5 N/A  

 
 
 
CLICK HERE TO GO TO PREVIOUS BULLETINS.

The Nexlab KS Page
The Nexlab CO Page
The Nexlab NE Page Main Text Page